Regional Weather Roundup
Issued by NWS

Home | Current Version | Previous Version | Text Only | Print | Product List | Glossary Off
Versions: 1 2 3 4 5 6 7 8 9 10 11 12 13 14 15 16 17 18 19 20 21 22 23 24 25 26 27 28 29 30 31 32 33 34 35 36 37 38 39 40 41 42 43 44 45 46 47 48 49 50

898
ASUS45 KSLC 160510
RWRUT

UTAH REGIONAL WEATHER ROUNDUP
NATIONAL WEATHER SERVICE SALT LAKE CITY UT
1000 PM MST SUN JAN 15 2017

UTZ001>011-023>025-160600-

NORTHERN UTAH

CITY           SKY/WX    TMP DP  RH WIND       PRES   REMARKS
BRIGHAM CITY     N/A     15  11  84 CALM      30.21S
HILL AFB       CLOUDY    21  14  74 E9        30.17R WCI  10
LOGAN          CLEAR      7   5  91 CALM      30.22R FOG
OGDEN          CLOUDY    23  18  81 N3        30.18R
SALT LAKE CITY CLOUDY    28  24  85 NW9       30.19R WCI  19
TOOELE VALLEY  CLOUDY    28  27  93 CALM      30.20R
WENDOVER       CLEAR     27  21  80 CALM      30.20R
HEBER CITY     MOCLDY     0  -6  78 SE3       30.13R
WEST JORDAN    CLOUDY    27  27 100 N7        30.18R WCI  19

$$

UTZ011>015-024>027-160600-

CENTRAL/NORTHEAST UTAH

CITY           SKY/WX    TMP DP  RH WIND       PRES   REMARKS
PROVO AIRPORT  CLOUDY    29  23  78 N3        30.17R
MOAB/CANYONLAN MOCLDY    36  34  92 NW5       29.95R WCI  32
DELTA          CLOUDY    30  27  86 NW3       30.15R
PRICE          CLEAR     24  21  88 NE3       29.95R
RICHFIELD      CLOUDY    30  30 100 N6        30.14R WCI  24
ROOSEVELT      CLOUDY    28  25  86 CALM      30.07R
VERNAL         CLOUDY    28  25  88 CALM      30.04S

$$

UTZ013>016-019>022-027-160600-

SOUTHERN UTAH

CITY           SKY/WX    TMP DP  RH WIND       PRES   REMARKS
BRYCE CANYON   CLOUDY    24  21  88 NW14      30.02R WCI  12
CEDAR CITY     CLOUDY    28  22  78 N9        30.08S WCI  19
MILFORD        CLOUDY    31  24  75 N8        30.12R WCI  23
ST GEORGE      PTCLDY    39  27  60 S8        30.08S WCI  34
HANKSVILLE     CLOUDY    36  36 100 MISG      30.00R
KANAB          CLOUDY    34  30  86 CALM      30.07R
BLANDING       CLOUDY    35  34  96 CALM      29.99R

$$

REGIONAL REPORTS     COLORADO/ARIZONA

CITY           SKY/WX    TMP DP  RH WIND       PRES   REMARKS
CRAIG, CO      CLOUDY    21  18  88 SW7       30.04R FOG     WCI  12
GRAND JUNCTION CLOUDY    35  29  78 CALM      29.95R
RIFLE, CO      CLOUDY    32  26  78 SW5       29.97S WCI  27
MONTROSE, CO   LGT RAIN  36  34  92 CALM      29.96R
CORTEZ, CO     CLOUDY    36  35  96 W5        29.91R WCI  32
COLORADO CITY    N/A     32  28  86 CALM      30.05S
PAGE, AZ       CLOUDY    45  37  73 CALM      29.96R
GRAND CANYON   CLOUDY    35  33  92 CALM      30.01S
KINGMAN, AZ    CLEAR     37  32  82 SE6       30.04R WCI  32
FLAGSTAFF, AZ  CLOUDY    34  33  96 W3        30.01R

$$

REGIONAL REPORTS    NEVADA/IDAHO/WYOMING

CITY           SKY/WX    TMP DP  RH WIND       PRES   REMARKS
LAS VEGAS, NV  PTCLDY    48  36  63 CALM      30.02R
ELY, NY        CLOUDY    24  22  91 N8        30.13R WCI  15
ELKO, NV       CLOUDY    25  18  74 NW3       30.22R
POCATELLO, ID  CLOUDY     7   3  84 SW6       30.28R WCI  -3
BURLEY, ID     CLOUDY    13   9  84 NW3       30.27R
FORT BRIDGER,    N/A     15  15 100 W12       30.09R WCI   2
EVANSTON, WY   CLOUDY     2  -3  80 SE5       30.08R WCI  -8
ROCK SPRINGS,  CLOUDY     4   0  83 W7        30.07R WCI  -8

$$




USA.gov is the U.S. government's official web portal to all federal, state and local government web resources and services.